Location: Hamburg
(53.5500°N, 10.0000°E)
Time: 21:36:28
(UTC+02:00)

ISS - Visible Passes

Search period start: 17 September 2014 00:00
Search period end: 27 September 2014 00:00
Orbit: 414 x 417 km, 51.6° (Epoch: 17 September)

Date Brightness Start Highest point End Pass type
(mag) Time Alt. Az. Time Alt. Az. Time Alt. Az.
17 Sep -1.7 05:31:14 15° SSW 05:33:15 26° SSE 05:36:06 10° E visible
18 Sep -1.3 04:44:32 19° SSE 04:44:41 20° SSE 04:47:10 10° E visible
18 Sep -2.7 06:17:42 10° WSW 06:20:57 51° SSE 06:24:12 10° E visible
19 Sep -0.3 03:57:46 11° ESE 03:57:46 11° ESE 03:57:58 10° ESE visible
19 Sep -2.5 05:30:39 24° SW 05:32:15 42° SSE 05:35:26 10° E visible
20 Sep -2.1 04:43:49 32° SE 04:43:49 32° SE 04:46:35 10° E visible
20 Sep -3.0 06:16:41 10° WSW 06:20:00 62° S 06:23:18 10° E visible
21 Sep -0.5 03:56:56 14° ESE 03:56:56 14° ESE 03:57:39 10° E visible
21 Sep -3.0 05:29:49 30° WSW 05:31:12 57° S 05:34:29 10° E visible
22 Sep -2.5 04:42:54 44° SE 04:42:54 44° SE 04:45:37 10° E visible
22 Sep -3.1 06:15:46 11° W 06:18:55 61° S 06:22:13 10° ESE visible
23 Sep -0.5 03:55:58 15° E 03:55:58 15° E 03:56:42 10° E visible
23 Sep -3.2 05:28:50 35° WSW 05:30:02 64° S 05:33:21 10° E visible
24 Sep -2.5 04:41:54 45° ESE 04:41:54 45° ESE 04:44:26 10° E visible
24 Sep -2.8 06:14:46 12° W 06:17:40 48° SSW 06:20:53 10° ESE visible
25 Sep -0.3 03:54:57 14° E 03:54:57 14° E 03:55:29 10° E visible
25 Sep -3.1 05:27:49 39° WSW 05:28:45 56° S 05:32:01 10° ESE visible
26 Sep -2.0 04:40:55 36° ESE 04:40:55 36° ESE 04:43:04 10° ESE visible
26 Sep -2.3 06:13:47 14° W 06:16:11 32° SSW 06:19:12 10° SE visible
